Regional Weather Roundup
Issued by NWS Cleveland, OH

Home | Current Version | Previous Version | Text Only | Print | Product List | Glossary On
Versions: 1 2 3 4 5 6 7 8 9 10 11 12 13 14 15 16 17 18 19 20 21 22 23 24 25 26 27 28 29 30 31 32 33 34 35 36 37 38 39 40 41 42 43 44 45 46 47 48 49 50
000
ASUS41 KCLE 240712
RWRCLE
OHIO REGIONAL WEATHER ROUNDUP
NATIONAL WEATHER SERVICE WILMINGTON, OH
300 AM EDT FRI MAR 24 2017

NOTE: "FAIR" INDICATES FEW OR NO CLOUDS BELOW 12,000 FEET WITH NO
SIGNIFICANT WEATHER AND/OR OBSTRUCTIONS TO VISIBILITY.

OHZ001>008-015>018-024>027-034-035-043-044-240800-
   NORTHWEST OHIO

CITY           SKY/WX    TMP DP  RH WIND       PRES   REMARKS
DEFIANCE       FAIR      41  34  76 SE3       30.10F
FINDLAY        FAIR      46  35  65 SE12      30.10F
TOLEDO EXPRESS CLOUDY    41  37  86 SE7       30.10F
TOLEDO EXEC    RAIN      42  40  92 SE10      30.12F FOG
LIMA           FAIR      48  37  65 S10       30.11F
$$

OHZ009>014-019>023-028>033-038-089-240800-
   NORTHEAST OHIO

CITY           SKY/WX    TMP DP  RH WIND       PRES   REMARKS
CLE-HOPKINS    LGT RAIN  43  32  65 S15       30.19F
CLE-LAKEFRONT  LGT RAIN  42  27  55 S15       30.16F
CUY CO. ARPT   NOT AVBL
LORAIN-ELYRIA  LGT RAIN  39  30  70 S12       30.16F
ASHTABULA      CLOUDY    42  15  33 S13       30.19F
AKRON-CANTON   LGT RAIN  43  22  43 S9        30.19F
WOOSTER        LGT RAIN  38  31  76 CALM      30.21F
MANSFIELD      CLOUDY    43  34  70 SE10      30.15F
YOUNGSTOWN     CLOUDY    43  13  29 SE12      30.20F
$$

OHZ042-051>053-060>062-070>072-077>081-240800-
  SOUTHWEST OHIO

CITY           SKY/WX    TMP DP  RH WIND       PRES   REMARKS
CINC-COVINGTON CLOUDY    53  37  54 S12       30.15F
CINC-LUNKEN    FAIR      46  37  71 SW3       30.17F
HAMILTON       FAIR      54  35  48 SE3       30.15F
DAYTON         MOCLDY    50  32  50 S10       30.13F
WRIGHT-PAT AFB FAIR      49  31  48 S7        30.14F
DAYTON GENERAL FAIR      51  33  50 S10       30.13F
WILMINGTON     FAIR      50  35  56 S9        30.17F
$$

OHZ036-037-039>041-045>050-054>059-063>069-073>076-082>088-240800-
  CENTRAL AND SOUTHEAST OHIO

CITY           SKY/WX    TMP DP  RH WIND       PRES   REMARKS
COLUMBUS       LGT RAIN  50  29  44 SE9       30.17F
OSU AIRPORT    FAIR      49  29  46 S10       30.16F
BOLTON FIELD   LGT RAIN  47  31  54 S8        30.17F
RICKENBACK AFB LGT RAIN  47  31  53 S10       30.16F
NEWARK         LGT RAIN  43  36  76 E8        30.17F
MARION         MOCLDY    46  32  58 S15       30.14F
LANCASTER      CLOUDY    51  26  37 SE8       30.19F
ZANESVILLE     CLOUDY    49  22  34 SE6       30.22S
NEW PHILLY     CLOUDY    43  17  35 SE6       30.23S
$$



USA.gov is the U.S. government's official web portal to all federal, state and local government web resources and services.